<?xml version="1.0"?>
<gpx xmlns="http://www.topografix.com/GPX/1/1" xmlns:xsi="http://www.w3.org/2001/XMLSchema-instance" version="1.1" creator="GPX RubyGem 1.0.0 -- http://dougfales.github.io/gpx/" xsi:schemaLocation="http://www.topografix.com/GPX/1/1 http://www.topografix.com/GPX/1/1/gpx.xsd">
  <metadata>
    <name/>
    <time>2026-05-08T10:38:08+00:00</time>
    <bound minlat="90.0" minlon="180.0" maxlat="-90.0" maxlon="-180.0"/>
  </metadata>
  <trk>
    <name/>
    <trkseg>
      <trkpt lat="45.385842" lon="5.023586">
        <time>1970-01-01T00:00:00+00:00</time>
        <ele>326.0</ele>
      </trkpt>
      <trkpt lat="45.385859" lon="5.023727">
        <time>1970-01-01T00:00:00+00:00</time>
        <ele>326.0</ele>
      </trkpt>
      <trkpt lat="45.385877" lon="5.02382">
        <time>1970-01-01T00:00:00+00:00</time>
        <ele>326.0</ele>
      </trkpt>
      <trkpt lat="45.385784" lon="5.023908">
        <time>1970-01-01T00:00:00+00:00</time>
        <ele>326.0</ele>
      </trkpt>
      <trkpt lat="45.385753" lon="5.023996">
        <time>1970-01-01T00:00:00+00:00</time>
        <ele>326.0</ele>
      </trkpt>
      <trkpt lat="45.385764" lon="5.024148">
        <time>1970-01-01T00:00:00+00:00</time>
        <ele>326.0</ele>
      </trkpt>
      <trkpt lat="45.38584" lon="5.024323">
        <time>1970-01-01T00:00:00+00:00</time>
        <ele>326.0</ele>
      </trkpt>
      <trkpt lat="45.386035" lon="5.024542">
        <time>1970-01-01T00:00:00+00:00</time>
        <ele>326.0</ele>
      </trkpt>
      <trkpt lat="45.386187" lon="5.024711">
        <time>1970-01-01T00:00:00+00:00</time>
        <ele>327.0</ele>
      </trkpt>
      <trkpt lat="45.386301" lon="5.024883">
        <time>1970-01-01T00:00:00+00:00</time>
        <ele>327.0</ele>
      </trkpt>
      <trkpt lat="45.386671" lon="5.025679">
        <time>1970-01-01T00:00:00+00:00</time>
        <ele>327.0</ele>
      </trkpt>
      <trkpt lat="45.388222" lon="5.029224">
        <time>1970-01-01T00:00:00+00:00</time>
        <ele>332.0</ele>
      </trkpt>
      <trkpt lat="45.388696" lon="5.028885">
        <time>1970-01-01T00:00:00+00:00</time>
        <ele>334.0</ele>
      </trkpt>
      <trkpt lat="45.388822" lon="5.028819">
        <time>1970-01-01T00:00:00+00:00</time>
        <ele>334.0</ele>
      </trkpt>
      <trkpt lat="45.389324" lon="5.028698">
        <time>1970-01-01T00:00:00+00:00</time>
        <ele>337.0</ele>
      </trkpt>
      <trkpt lat="45.389488" lon="5.028671">
        <time>1970-01-01T00:00:00+00:00</time>
        <ele>337.0</ele>
      </trkpt>
      <trkpt lat="45.390105" lon="5.028577">
        <time>1970-01-01T00:00:00+00:00</time>
        <ele>339.0</ele>
      </trkpt>
      <trkpt lat="45.390364" lon="5.028581">
        <time>1970-01-01T00:00:00+00:00</time>
        <ele>340.0</ele>
      </trkpt>
      <trkpt lat="45.390684" lon="5.02866">
        <time>1970-01-01T00:00:00+00:00</time>
        <ele>341.0</ele>
      </trkpt>
      <trkpt lat="45.390682" lon="5.029057">
        <time>1970-01-01T00:00:00+00:00</time>
        <ele>341.0</ele>
      </trkpt>
      <trkpt lat="45.390611" lon="5.029336">
        <time>1970-01-01T00:00:00+00:00</time>
        <ele>340.0</ele>
      </trkpt>
      <trkpt lat="45.390622" lon="5.029443">
        <time>1970-01-01T00:00:00+00:00</time>
        <ele>340.0</ele>
      </trkpt>
      <trkpt lat="45.390648" lon="5.029524">
        <time>1970-01-01T00:00:00+00:00</time>
        <ele>339.0</ele>
      </trkpt>
      <trkpt lat="45.390927" lon="5.030087">
        <time>1970-01-01T00:00:00+00:00</time>
        <ele>340.0</ele>
      </trkpt>
      <trkpt lat="45.391308" lon="5.030366">
        <time>1970-01-01T00:00:00+00:00</time>
        <ele>341.0</ele>
      </trkpt>
      <trkpt lat="45.391654" lon="5.030586">
        <time>1970-01-01T00:00:00+00:00</time>
        <ele>343.0</ele>
      </trkpt>
      <trkpt lat="45.391816" lon="5.030726">
        <time>1970-01-01T00:00:00+00:00</time>
        <ele>343.0</ele>
      </trkpt>
      <trkpt lat="45.391903" lon="5.030827">
        <time>1970-01-01T00:00:00+00:00</time>
        <ele>343.0</ele>
      </trkpt>
      <trkpt lat="45.391993" lon="5.030972">
        <time>1970-01-01T00:00:00+00:00</time>
        <ele>343.0</ele>
      </trkpt>
      <trkpt lat="45.392332" lon="5.031825">
        <time>1970-01-01T00:00:00+00:00</time>
        <ele>343.0</ele>
      </trkpt>
      <trkpt lat="45.393323" lon="5.033241">
        <time>1970-01-01T00:00:00+00:00</time>
        <ele>349.0</ele>
      </trkpt>
      <trkpt lat="45.393937" lon="5.033476">
        <time>1970-01-01T00:00:00+00:00</time>
        <ele>350.0</ele>
      </trkpt>
      <trkpt lat="45.394052" lon="5.033502">
        <time>1970-01-01T00:00:00+00:00</time>
        <ele>350.0</ele>
      </trkpt>
      <trkpt lat="45.395366" lon="5.034025">
        <time>1970-01-01T00:00:00+00:00</time>
        <ele>354.0</ele>
      </trkpt>
      <trkpt lat="45.396058" lon="5.034156">
        <time>1970-01-01T00:00:00+00:00</time>
        <ele>356.0</ele>
      </trkpt>
      <trkpt lat="45.396679" lon="5.034118">
        <time>1970-01-01T00:00:00+00:00</time>
        <ele>359.0</ele>
      </trkpt>
      <trkpt lat="45.39722" lon="5.033982">
        <time>1970-01-01T00:00:00+00:00</time>
        <ele>360.0</ele>
      </trkpt>
      <trkpt lat="45.397321" lon="5.034875">
        <time>1970-01-01T00:00:00+00:00</time>
        <ele>359.0</ele>
      </trkpt>
      <trkpt lat="45.397321" lon="5.034875">
        <time>1970-01-01T00:00:00+00:00</time>
        <ele>359.0</ele>
      </trkpt>
      <trkpt lat="45.39722" lon="5.033982">
        <time>1970-01-01T00:00:00+00:00</time>
        <ele>360.0</ele>
      </trkpt>
      <trkpt lat="45.396679" lon="5.034118">
        <time>1970-01-01T00:00:00+00:00</time>
        <ele>359.0</ele>
      </trkpt>
      <trkpt lat="45.396058" lon="5.034156">
        <time>1970-01-01T00:00:00+00:00</time>
        <ele>356.0</ele>
      </trkpt>
      <trkpt lat="45.395366" lon="5.034025">
        <time>1970-01-01T00:00:00+00:00</time>
        <ele>354.0</ele>
      </trkpt>
      <trkpt lat="45.394052" lon="5.033502">
        <time>1970-01-01T00:00:00+00:00</time>
        <ele>350.0</ele>
      </trkpt>
      <trkpt lat="45.393937" lon="5.033476">
        <time>1970-01-01T00:00:00+00:00</time>
        <ele>350.0</ele>
      </trkpt>
      <trkpt lat="45.393323" lon="5.033241">
        <time>1970-01-01T00:00:00+00:00</time>
        <ele>349.0</ele>
      </trkpt>
      <trkpt lat="45.392332" lon="5.031825">
        <time>1970-01-01T00:00:00+00:00</time>
        <ele>343.0</ele>
      </trkpt>
      <trkpt lat="45.391993" lon="5.030972">
        <time>1970-01-01T00:00:00+00:00</time>
        <ele>343.0</ele>
      </trkpt>
      <trkpt lat="45.391903" lon="5.030827">
        <time>1970-01-01T00:00:00+00:00</time>
        <ele>343.0</ele>
      </trkpt>
      <trkpt lat="45.391816" lon="5.030726">
        <time>1970-01-01T00:00:00+00:00</time>
        <ele>343.0</ele>
      </trkpt>
      <trkpt lat="45.391654" lon="5.030586">
        <time>1970-01-01T00:00:00+00:00</time>
        <ele>343.0</ele>
      </trkpt>
      <trkpt lat="45.391308" lon="5.030366">
        <time>1970-01-01T00:00:00+00:00</time>
        <ele>341.0</ele>
      </trkpt>
      <trkpt lat="45.390927" lon="5.030087">
        <time>1970-01-01T00:00:00+00:00</time>
        <ele>340.0</ele>
      </trkpt>
      <trkpt lat="45.390648" lon="5.029524">
        <time>1970-01-01T00:00:00+00:00</time>
        <ele>339.0</ele>
      </trkpt>
      <trkpt lat="45.390622" lon="5.029443">
        <time>1970-01-01T00:00:00+00:00</time>
        <ele>340.0</ele>
      </trkpt>
      <trkpt lat="45.390611" lon="5.029336">
        <time>1970-01-01T00:00:00+00:00</time>
        <ele>340.0</ele>
      </trkpt>
      <trkpt lat="45.390682" lon="5.029057">
        <time>1970-01-01T00:00:00+00:00</time>
        <ele>341.0</ele>
      </trkpt>
      <trkpt lat="45.390684" lon="5.02866">
        <time>1970-01-01T00:00:00+00:00</time>
        <ele>341.0</ele>
      </trkpt>
      <trkpt lat="45.390364" lon="5.028581">
        <time>1970-01-01T00:00:00+00:00</time>
        <ele>340.0</ele>
      </trkpt>
      <trkpt lat="45.390105" lon="5.028577">
        <time>1970-01-01T00:00:00+00:00</time>
        <ele>339.0</ele>
      </trkpt>
      <trkpt lat="45.389488" lon="5.028671">
        <time>1970-01-01T00:00:00+00:00</time>
        <ele>337.0</ele>
      </trkpt>
      <trkpt lat="45.389324" lon="5.028698">
        <time>1970-01-01T00:00:00+00:00</time>
        <ele>337.0</ele>
      </trkpt>
      <trkpt lat="45.388822" lon="5.028819">
        <time>1970-01-01T00:00:00+00:00</time>
        <ele>334.0</ele>
      </trkpt>
      <trkpt lat="45.388696" lon="5.028885">
        <time>1970-01-01T00:00:00+00:00</time>
        <ele>334.0</ele>
      </trkpt>
      <trkpt lat="45.388222" lon="5.029224">
        <time>1970-01-01T00:00:00+00:00</time>
        <ele>332.0</ele>
      </trkpt>
      <trkpt lat="45.386671" lon="5.025679">
        <time>1970-01-01T00:00:00+00:00</time>
        <ele>327.0</ele>
      </trkpt>
      <trkpt lat="45.386301" lon="5.024883">
        <time>1970-01-01T00:00:00+00:00</time>
        <ele>327.0</ele>
      </trkpt>
      <trkpt lat="45.386187" lon="5.024711">
        <time>1970-01-01T00:00:00+00:00</time>
        <ele>327.0</ele>
      </trkpt>
      <trkpt lat="45.386035" lon="5.024542">
        <time>1970-01-01T00:00:00+00:00</time>
        <ele>326.0</ele>
      </trkpt>
      <trkpt lat="45.38584" lon="5.024323">
        <time>1970-01-01T00:00:00+00:00</time>
        <ele>326.0</ele>
      </trkpt>
      <trkpt lat="45.385764" lon="5.024148">
        <time>1970-01-01T00:00:00+00:00</time>
        <ele>326.0</ele>
      </trkpt>
      <trkpt lat="45.385753" lon="5.023996">
        <time>1970-01-01T00:00:00+00:00</time>
        <ele>326.0</ele>
      </trkpt>
      <trkpt lat="45.385784" lon="5.023908">
        <time>1970-01-01T00:00:00+00:00</time>
        <ele>326.0</ele>
      </trkpt>
      <trkpt lat="45.385877" lon="5.02382">
        <time>1970-01-01T00:00:00+00:00</time>
        <ele>326.0</ele>
      </trkpt>
      <trkpt lat="45.385859" lon="5.023727">
        <time>1970-01-01T00:00:00+00:00</time>
        <ele>326.0</ele>
      </trkpt>
      <trkpt lat="45.385842" lon="5.023586">
        <time>1970-01-01T00:00:00+00:00</time>
        <ele>326.0</ele>
      </trkpt>
    </trkseg>
  </trk>
</gpx>
